Simultaneous Nadir Overpasses (SNOs) Predictions

Prediction of SNOs near equator between AQUA and NPP Satellite Orbit:

Table of predicted SNOs near equator for the next 14.0 days since TLE Epoch: 12/9/2011
Index Date (AQUA) Time (AQUA) AQUA Lat,Lon Date (NPP) Time (NPP) NPP Lat,Lon Distance(km) Time Diff (sec)
1 12/10/2011 07:51:52 -4.06, -94.81 12/10/2011 07:42:25 -4.04, -94.96 16.48 567
2 12/10/2011 08:40:08 -0.45, 73.77 12/10/2011 08:31:56 -0.52, 73.36 46.59 492
3 12/10/2011 09:28:15 4.96,-117.60 12/10/2011 09:21:18 5.12,-118.27 76.63 417
4 12/12/2011 23:26:12 29.99,-152.59 12/12/2011 23:16:12 30.71,-153.01 89.14 600
5 12/13/2011 00:08:02 -2.85, 21.33 12/12/2011 23:58:55 -2.82, 21.10 25.64 547
6 12/13/2011 00:56:18 -1.65,-170.09 12/13/2011 00:48:26 -1.75,-170.58 55.79 472
7 12/13/2011 01:44:25 6.17, -1.46 12/13/2011 01:37:48 6.35, -2.22 85.61 397
8 12/15/2011 15:38:12 13.72, -32.82 12/15/2011 15:28:12 13.74, -32.95 13.35 600
9 12/15/2011 16:24:16 -1.81, 137.42 12/15/2011 16:15:27 -1.72, 137.12 34.49 529
10 12/15/2011 17:12:30 -2.81, -53.97 12/15/2011 17:04:57 -2.90, -54.54 64.49 453
11 12/15/2011 18:00:38 7.26, 114.64 12/15/2011 17:54:20 7.44, 113.81 94.04 378
12 12/18/2011 07:52:22 5.18, 84.91 12/18/2011 07:42:36 5.18, 84.80 12.51 586
13 12/18/2011 08:40:30 -0.72,-106.48 12/18/2011 08:31:59 -0.65,-106.85 42.53 511
14 12/18/2011 09:28:45 -3.84, 62.12 12/18/2011 09:21:29 -3.98, 61.48 72.50 436
15 12/21/2011 00:08:38 4.21,-159.02 12/20/2011 23:59:08 4.18,-159.20 19.89 570
16 12/21/2011 00:56:46 0.26, 9.59 12/21/2011 00:48:31 0.35, 9.15 50.15 495
17 12/21/2011 01:45:01 -4.82, 178.19 12/21/2011 01:38:01 -4.98, 177.49 80.02 420
18 12/23/2011 16:24:58 3.35, -42.98 12/23/2011 16:15:43 3.32, -43.22 27.13 555
19 12/23/2011 17:13:05 1.18, 125.65 12/23/2011 17:05:05 1.27, 125.14 57.25 480
20 12/23/2011 18:01:21 -5.67, -65.76 12/23/2011 17:54:36 -5.84, -66.53 87.03 405




NCC Satellite Simultaneous Nadir Overpasses (SNOs) Prediction Service
